Simultaneous Nadir Overpasses (SNOs) Predictions

Prediction of SNOs between TERRA and METOP-C Satellite Orbit:

Table of predicted SNOs for the next 14.0 days since TLE Epoch: 4/23/2022
Index Date (TERRA) Time (TERRA) Lat,Lon (TERRA) SZA (TERRA ) Date (METOP-C) Time (METOP-C) Lat,Lon (METOP-C) SZA (METOP-C ) Distance(km) Time Diff (sec)
1 04/23/2022 04:52:40 81.20, 148.83 71.03 04/23/2022 04:53:27 81.21, 148.83 71.05 0.30 47
2 04/25/2022 23:37:25 -81.21, 47.64 109.87 04/25/2022 23:37:07 -81.20, 47.71 109.87 1.24 18
3 04/26/2022 00:26:51 81.21,-144.64 70.14 04/26/2022 00:27:48 81.21,-144.69 70.16 0.85 57
4 04/28/2022 19:11:36 -81.20, 114.06 110.75 04/28/2022 19:11:28 -81.20, 114.16 110.75 1.72 8
5 04/28/2022 20:01:02 81.21, -78.25 69.25 04/28/2022 20:02:09 81.21, -78.26 69.28 0.23 67
6 05/01/2022 13:56:20 81.17, 12.36 68.34 05/01/2022 13:55:10 81.18, 12.48 68.32 2.23 70
7 05/01/2022 14:45:46 -81.19,-179.67 111.63 05/01/2022 14:45:49 -81.19,-179.82 111.64 2.64 3
8 05/04/2022 09:30:30 81.18, 78.84 67.52 05/04/2022 09:29:31 81.18, 78.81 67.50 0.60 59



Historial Predications of SNOs between TERRA and METOP-C
